Weather History for International Falls, MN

Change the Weather History Date:

Wednesday, January 1, 2014

  Actual Average Record
Temperature  
Mean Temperature -25 °F 5 °F  
Max Temperature -11 °F 15 °F 39 °F (1964)
Min Temperature -39 °F -5 °F -39 °F (2014)
Degree Days  
Heating Degree Days 90 60  
Month to date heating degree days 90 60  
Since 1 July heating degree days 4585 4235  
Cooling Degree Days 0 0  
Month to date cooling degree days 0 0  
Year to date cooling degree days 0 0  
Moisture  
Dew Point -31 °F    
Average Humidity 67    
Maximum Humidity 77    
Minimum Humidity 57    
Precipitation  
Precipitation 0.00 in 0.02 in 0.80 in (1921)
Month to date precipitation 0.00 0.02  
Year to date precipitation 0.00 0.02  
Snow  
Snow 0.00 in 0.50 in 4.30 in (2009)
Month to date snowfall 0.0 0.5  
Since 1 July snowfall 37.3 31.5  
Snow Depth 12.00 in    
Sea Level Pressure  
Sea Level Pressure 30.57 in    
Wind  
Wind Speed 0 mph (NW)    
Max Wind Speed 4 mph    
Max Gust Speed -    
Visibility 10 miles    
Events      
T = Trace of Precipitation, MM = Missing Value Source: NWS Daily Summary

Daily Weather History Graph

Daily Weather History Graph

Search for Another Location

Airport:

Trip Planner

Search our weather history database for the weather conditions in past years. The results will help you decide how hot, cold, wet, or windy it might be!

Date:

Astronomy

Jan. 01, 2014 Rise Set
Actual Time 8:05 AM CST 4:28 PM CST
Civil Twilight 7:29 AM CST 5:05 PM CST
Nautical Twilight 6:49 AM CST 5:45 PM CST
Astronomical Twilight 6:11 AM CST 6:23 PM CST
Moon 7:51 AM CST (1/1) 5:21 PM CST (1/1)
Length of Visible Light 9h 36m
Length of Day
8h 23m
New Moon, 0% of the Moon is Illuminated
Jan 1
New Moon
Jan 7
First Quarter
Jan 15
Full
Jan 23
Last Quarter
Jan 30
New

Hourly Weather History & Observations

Time (CST) Temp. Windchill Dew Point Humidity Pressure Visibility Wind Dir Wind Speed Gust Speed Precip Events Conditions
12:55 AM -25.1 °F - -31.0 °F 74% 30.57 in 10.0 mi Calm Calm - N/A   Clear
1:55 AM -25.1 °F - -31.0 °F 74% 30.56 in 10.0 mi Calm Calm - N/A   Clear
2:55 AM -26.0 °F -37.5 °F -33.0 °F 69% 30.56 in 10.0 mi NNW 3.5 mph - N/A   Clear
3:19 AM -27.4 °F - -32.8 °F 75% 30.40 in 10.0 mi Calm Calm - N/A   Scattered Clouds
3:30 AM -25.6 °F -37.1 °F -32.8 °F 69% 30.40 in 10.0 mi NNW 3.5 mph - N/A   Mostly Cloudy
3:55 AM -27.9 °F - -34.1 °F 73% 30.57 in 10.0 mi Calm Calm - N/A   Overcast
4:20 AM -27.4 °F -39.2 °F -34.6 °F 69% 30.41 in 10.0 mi WSW 3.5 mph - N/A   Mostly Cloudy
4:55 AM -27.0 °F - -34.1 °F 69% 30.57 in 10.0 mi Calm Calm - N/A   Overcast
5:55 AM -29.0 °F - -36.9 °F 66% 30.59 in 10.0 mi Calm Calm - N/A   Overcast
6:32 AM -32.8 °F - - N/A% 30.42 in 10.0 mi Calm Calm - N/A   Partly Cloudy
6:55 AM -29.9 °F - - N/A% 30.59 in 10.0 mi Calm Calm - N/A   Clear
7:47 AM -25.6 °F - -32.8 °F 69% 30.43 in 3.0 mi Calm Calm - N/A   Haze
7:55 AM -26.0 °F - -32.1 °F 73% 30.60 in 10.0 mi Calm Calm - N/A   Partly Cloudy
8:12 AM -27.4 °F - -34.6 °F 69% 30.44 in 10.0 mi Calm Calm - N/A   Mostly Cloudy
8:55 AM -27.9 °F - -35.0 °F 69% 30.63 in 10.0 mi Calm Calm - N/A   Overcast
9:34 AM -27.4 °F - -32.8 °F 75% 30.47 in 10.0 mi Calm Calm - N/A   Partly Cloudy
9:55 AM -26.0 °F - -31.0 °F 77% 30.65 in 8.0 mi Calm Calm - N/A   Clear
10:55 AM -22.0 °F - -27.0 °F 77% 30.65 in 10.0 mi Calm Calm - N/A   Clear
11:55 AM -17.0 °F - -25.1 °F 67% 30.63 in 10.0 mi Calm Calm - N/A   Clear
12:55 PM -13.0 °F - -20.9 °F 68% 30.61 in 10.0 mi Calm Calm - N/A   Clear
1:55 PM -13.0 °F -22.7 °F -23.1 °F 61% 30.59 in 10.0 mi NNW 3.5 mph - N/A   Clear
2:55 PM -11.0 °F - -22.0 °F 58% 30.59 in 10.0 mi Calm Calm - N/A   Clear
3:55 PM -14.1 °F - -23.1 °F 64% 30.60 in 10.0 mi Calm Calm - N/A   Clear
4:55 PM -22.0 °F - -29.0 °F 70% 30.61 in 10.0 mi Calm Calm - N/A   Clear
5:55 PM -27.9 °F - -34.1 °F 73% 30.62 in 9.0 mi Calm Calm - N/A   Clear
6:55 PM -31.0 °F - - N/A% 30.62 in 9.0 mi Calm Calm - N/A   Clear
7:55 PM -34.1 °F - - N/A% 30.62 in 9.0 mi Calm Calm - N/A   Clear
8:55 PM -35.0 °F - - N/A% 30.62 in 10.0 mi Calm Calm - N/A   Clear
9:55 PM -36.0 °F - - N/A% 30.61 in 10.0 mi Calm Calm - N/A   Clear
10:55 PM -36.9 °F - - N/A% 30.60 in 8.0 mi Calm Calm - N/A   Clear
11:55 PM -38.0 °F - - N/A% 30.60 in 10.0 mi Calm Calm - N/A   Clear